Location: Buckenweiler
(49.0667°N, 10.2500°E)
Time: 01:07:40
(UTC+00:00)

TIMED - Pass Details

Date: 18 January 2026
Orbit: 581 x 584 km, 74.1° (Epoch: 6 February)

Event Time Altitude Azimuth Distance (km) Brightness Sun altitude
Exits shadow 04:44:27 61° 345° (NNW) 664 4.5 -22.6°
Drops below altitude 10° 04:48:10 10° 19° (NNE) 1,913 7.2 -22.0°
Sets 04:50:24 0° 22° (NNE) 2,818 8.1 -21.6°
